Strait of Georgia - north of Nanaimo: Past 24 Hour Conditions

 

Saturna Island

11:00 AM PST 28 November 2014
This table is a summary of hourly weather conditions for the past 24 hours.
Date / Time
(PST)
Wind(knots) Conditions Visibility(km) Pressure(kPa) Air tempC) Relative humidity(%) Dew pointC)
28 November 2014
11:00 NW 4 N/A N/A 100.0 6 73 2
10:00 NW 4 N/A N/A 100.0 6 82 3
9:00 NW 2 N/A N/A 100.0 6 86 4
8:00 N 3 N/A N/A 100.0 6 89 4
7:00 NNE 2 N/A N/A 100.0 6 92 4
6:00 NNW 3 N/A N/A 100.0 6 93 5
5:00 NNW 2 N/A N/A 100.0 7 93 6
4:00 WNW 4 N/A N/A 100.0 7 93 6
3:00 SSE 4 gust 18 N/A N/A 100.0 10 90 9
2:00 SW 19 gust 24 N/A N/A 99.9 11 91 10
1:00 SW 23 gust 28 N/A N/A 100.0 12 88 10
0:00 SSW 18 gust 24 N/A N/A 100.0 12 87 10
27 November 2014
23:00 S 20 gust 25 N/A N/A 100.1 12 86 10
22:00 SW 19 N/A N/A 100.1 11 90 10
21:00 SW 11 gust 16 N/A N/A 100.2 11 88 10
20:00 SSW 20 N/A N/A 100.2 12 86 10
19:00 SSW 23 N/A N/A 100.3 13 83 10
18:00 S 18 N/A N/A 100.3 13 84 10
17:00 SSW 15 N/A N/A 100.4 13 84 10
16:00 SSW 18 N/A N/A 100.4 12 88 10
15:00 SSW 20 N/A N/A 100.4 13 85 10
14:00 SSW 21 N/A N/A 100.4 13 82 10
13:00 S 26 gust 31 N/A N/A 100.4 13 85 10
12:00 SSW 21 N/A N/A 100.5 13 81 10
11:00 SSW 22 N/A N/A 100.6 13 83 10
 
Map of Pacific - Georgia Basin marine weather areas Tsawwassen Ferry Terminal Sentry Shoal - 46131 Halibut Bank - 46146 La Perouse Bank - 46206 Discovery Island Esquimalt Harbour Kelp Reefs Malahat Race Rocks Lightstation Saturna Island Sheringham Point University of Victoria Victoria Gonzales Victoria Int'l Airport Ballenas Islands Campbell River Airport Comox Airport Entrance Island Fanny Island Nanaimo Airport Sisters Islets Estevan Point Tofino Airport Grief Point Powell River Airport Sechelt Point Atkinson Sand Heads Lightstation Vancouver Harbour Vancouver Int'l Airport West Vancouver Port Alberni Howe Sound - Pam Rocks Squamish Airport